This is the latest recevied weather packets stored in our database for station/object s59zo-6. If no packets are shown the sender has not sent any weather packets the latest 10 day(s).
| Time | Temp. | Humidity | Pressure | Rain* | Wind** | Luminosity | Snow |
|---|---|---|---|---|---|---|---|
| 1787568004 | 25.56° C | 42% | 1022 hPa | 0 mm | - | - | - |
| 1787567704 | 25.56° C | 42% | 1022 hPa | 0 mm | - | - | - |
| 1787567405 | 25.56° C | 43% | 1022.1 hPa | 0 mm | - | - | - |
| 1787567104 | 25.56° C | 42% | 1022.1 hPa | 0 mm | - | - | - |
| 1787566805 | 25.56° C | 42% | 1022.1 hPa | 0 mm | - | - | - |
| 1787566504 | 25.56° C | 42% | 1022.2 hPa | 0 mm | - | - | - |
| 1787566204 | 25.56° C | 42% | 1022.3 hPa | 0 mm | - | - | - |
| 1787565903 | 25° C | 41% | 1022.2 hPa | 0 mm | - | - | - |
| 1787565605 | 25° C | 41% | 1022.4 hPa | 0 mm | - | - | - |
| 1787565304 | 25° C | 41% | 1022.3 hPa | 0 mm | - | - | - |
| 1787565005 | 25° C | 43% | 1022.4 hPa | 0 mm | - | - | - |
| 1787564711 | 24.44° C | 42% | 1022.4 hPa | 0 mm | - | - | - |
| 1787564405 | 24.44° C | 41% | 1022.4 hPa | 0 mm | - | - | - |
| 1787564104 | 24.44° C | 42% | 1022.5 hPa | 0 mm | - | - | - |
| 1787563805 | 24.44° C | 43% | 1022.5 hPa | 0 mm | - | - | - |
| 1787563504 | 24.44° C | 43% | 1022.7 hPa | 0 mm | - | - | - |
| 1787563205 | 23.89° C | 46% | 1022.5 hPa | 0 mm | - | - | - |
| 1787562904 | 23.89° C | 50% | 1022.6 hPa | 0 mm | - | - | - |
| 1787562605 | 23.33° C | 52% | 1022.8 hPa | 0 mm | - | - | - |
| 1787562304 | 22.78° C | 54% | 1022.8 hPa | 0 mm | - | - | - |
| 1787562004 | 22.78° C | 54% | 1022.8 hPa | 0 mm | - | - | - |
| 1787561711 | 22.22° C | 55% | 1022.6 hPa | 0 mm | - | - | - |
| 1787561405 | 22.22° C | 60% | 1022.6 hPa | 0 mm | - | - | - |
| 1787561104 | 22.22° C | 58% | 1022.8 hPa | 0 mm | - | - | - |
| 1787560805 | 22.22° C | 60% | 1022.6 hPa | 0 mm | - | - | - |
* Rain latest hour (hover to see other rain measurements)
** Current wind speed in m/s (hover to see current wind gust speed)